| time (UTC) | temp F | wind direction | speed MPH | gust MPH | rain 1hr in | rain 24hr in | rain mn in | humidity % | barometer mb |
| 20260905024406 | 57 | 187 | 3.0 | 7.0 | 0.00 | 0.39 | 0.00 | 90 | 1014.3 |
| 20260905023406 | 57 | 234 | 3.0 | 7.0 | 0.00 | 0.39 | 0.00 | 89 | 1014.3 |
| 20260905022406 | 57 | 287 | 3.0 | 8.0 | 0.00 | 0.39 | 0.00 | 89 | 1014.2 |
| 20260905020407 | 57 | 240 | 3.0 | 8.0 | 0.00 | 0.39 | 0.00 | 89 | 1014.1 |
| 20260905015406 | 57 | 245 | 2.0 | 8.0 | 0.00 | 0.40 | 0.00 | 89 | 1014.0 |
| 20260905014406 | 57 | 229 | 3.0 | 8.0 | 0.00 | 0.40 | 0.00 | 89 | 1013.9 |
| 20260905011406 | 57 | 228 | 3.0 | 8.0 | 0.00 | 0.40 | 0.00 | 90 | 1013.8 |
| 20260905005406 | 57 | 244 | 2.0 | 7.0 | 0.00 | 0.41 | 0.00 | 91 | 1013.8 |
| 20260905002406 | 57 | 244 | 3.0 | 9.0 | 0.00 | 0.41 | 0.00 | 92 | 1013.6 |
| 20260905001406 | 57 | 259 | 2.0 | 7.0 | 0.00 | 0.41 | 0.00 | 92 | 1013.6 |
| 20260905000406 | 57 | 301 | 2.0 | 7.0 | 0.00 | 0.41 | 0.00 | 92 | 1013.6 |
| 20260904235406 | 57 | 209 | 2.0 | 5.0 | 0.00 | 0.41 | 0.00 | 91 | 1013.5 |
| 20260904234407 | 57 | 246 | 2.0 | 6.0 | 0.00 | 0.41 | 0.00 | 91 | 1013.5 |
| 20260904233406 | 57 | 247 | 2.0 | 5.0 | 0.00 | 0.41 | 0.00 | 91 | 1013.5 |
| 20260904232408 | 58 | 296 | 2.0 | 5.0 | 0.00 | 0.41 | 0.00 | 91 | 1013.3 |
| 20260904231406 | 58 | 274 | 2.0 | 6.0 | 0.00 | 0.41 | 0.00 | 90 | 1013.3 |
| 20260904230407 | 58 | 286 | 3.0 | 7.0 | 0.00 | 0.41 | 0.00 | 91 | 1013.2 |
| 20260904225408 | 58 | 266 | 3.0 | 9.0 | 0.00 | 0.41 | 0.00 | 90 | 1013.2 |
| 20260904224407 | 59 | 272 | 3.0 | 8.0 | 0.00 | 0.41 | 0.00 | 90 | 1013.1 |
| 20260904223407 | 59 | 253 | 5.0 | 12.0 | 0.00 | 0.41 | 0.00 | 90 | 1013.1 |
| 20260904222408 | 59 | 236 | 4.0 | 11.0 | 0.00 | 0.41 | 0.00 | 90 | 1013.0 |
| 20260904221407 | 58 | 256 | 3.0 | 7.0 | 0.00 | 0.41 | 0.00 | 90 | 1012.9 |
| 20260904220407 | 58 | 221 | 2.0 | 4.0 | 0.00 | 0.41 | 0.00 | 90 | 1012.8 |
| 20260904215407 | 58 | 257 | 2.0 | 4.0 | 0.00 | 0.41 | 0.41 | 90 | 1012.8 |
| 20260904181409 | 62 | 305 | 4.0 | 10.0 | 0.00 | 0.41 | 0.41 | 85 | 1010.8 |
| 20260904180409 | 62 | 276 | 5.0 | 10.0 | 0.00 | 0.41 | 0.41 | 85 | 1010.7 |
| 20260904175409 | 62 | 208 | 3.0 | 9.0 | 0.00 | 0.41 | 0.41 | 84 | 1010.6 |
| 20260904174409 | 63 | 267 | 3.0 | 8.0 | 0.00 | 0.41 | 0.41 | 83 | 1010.5 |
| 20260904173409 | 63 | 244 | 5.0 | 9.0 | 0.00 | 0.41 | 0.41 | 83 | 1010.5 |
| 20260904171409 | 64 | 277 | 5.0 | 11.0 | 0.00 | 0.41 | 0.41 | 83 | 1010.3 |
| 20260904165409 | 64 | 5 | 9.0 | 18.0 | 0.00 | 0.41 | 0.41 | 82 | 1010.1 |
| 20260904164409 | 64 | 302 | 6.0 | 15.0 | 0.00 | 0.41 | 0.41 | 85 | 1009.9 |
| 20260904163409 | 64 | 271 | 6.0 | 13.0 | 0.00 | 0.41 | 0.41 | 86 | 1009.7 |
| 20260904160409 | 64 | 280 | 6.0 | 15.0 | 0.00 | 0.41 | 0.41 | 87 | 1009.5 |
| 20260904155409 | 64 | 279 | 8.0 | 17.0 | 0.00 | 0.41 | 0.41 | 87 | 1009.3 |
| 20260904154409 | 64 | 198 | 6.0 | 13.0 | 0.00 | 0.41 | 0.41 | 89 | 1009.3 |
| 20260904152409 | 64 | 300 | 7.0 | 15.0 | 0.00 | 0.41 | 0.41 | 92 | 1009.2 |
| 20260904151409 | 65 | 257 | 7.0 | 17.0 | 0.00 | 0.41 | 0.41 | 92 | 1008.9 |
| 20260904150409 | 65 | 282 | 7.0 | 15.0 | 0.00 | 0.41 | 0.41 | 93 | 1008.9 |
| 20260904145409 | 64 | 290 | 7.0 | 15.0 | 0.00 | 0.41 | 0.41 | 93 | 1008.6 |
| 20260904144409 | 64 | 253 | 7.0 | 14.0 | 0.00 | 0.41 | 0.41 | 94 | 1008.3 |
| 20260904143411 | 64 | 346 | 6.0 | 15.0 | 0.00 | 0.41 | 0.41 | 95 | 1008.4 |
| 20260904142502 | 64 | 284 | 8.0 | 18.0 | 0.00 | 0.41 | 0.41 | 94 | 1008.5 |
| 20260904142402 | 64 | 271 | 6.0 | 18.0 | 0.00 | 0.41 | 0.41 | 95 | 1008.5 |
| 20260904141402 | 64 | 315 | 10.0 | 19.0 | 0.00 | 0.41 | 0.41 | 95 | 1008.3 |
| 20260904140402 | 64 | 293 | 8.0 | 19.0 | 0.00 | 0.41 | 0.41 | 95 | 1008.0 |
| 20260904135403 | 64 | 266 | 7.0 | 16.0 | 0.01 | 0.41 | 0.41 | 95 | 1007.8 |
| 20260904132402 | 63 | 277 | 5.0 | 16.0 | 0.03 | 0.41 | 0.41 | 95 | 1007.1 |
| 20260904131402 | 63 | 217 | 7.0 | 13.0 | 0.05 | 0.41 | 0.41 | 95 | 1008.0 |
| 20260904130402 | 64 | 175 | 9.0 | 18.0 | 0.06 | 0.41 | 0.41 | 95 | 1008.0 |
| 20260904125402 | 63 | 161 | 5.0 | 13.0 | 0.06 | 0.40 | 0.40 | 95 | 1007.4 |
| 20260904124402 | 63 | 212 | 7.0 | 12.0 | 0.06 | 0.39 | 0.39 | 95 | 1007.6 |
| 20260904123404 | 63 | 242 | 8.0 | 15.0 | 0.05 | 0.39 | 0.39 | 94 | 1007.8 |
| 20260904122402 | 64 | 208 | 4.0 | 11.0 | 0.05 | 0.38 | 0.38 | 94 | 1006.8 |
| 20260904121403 | 64 | 217 | 4.0 | 9.0 | 0.03 | 0.36 | 0.36 | 94 | 1007.0 |
| 20260904120402 | 65 | 205 | 7.0 | 19.0 | 0.03 | 0.35 | 0.35 | 94 | 1007.2 |
| 20260904115403 | 65 | 227 | 4.0 | 10.0 | 0.02 | 0.35 | 0.35 | 94 | 1006.9 |
| 20260904113403 | 67 | 263 | 8.0 | 22.0 | 0.02 | 0.34 | 0.34 | 95 | 1007.3 |
| 20260904112402 | 67 | 223 | 7.0 | 16.0 | 0.02 | 0.33 | 0.33 | 96 | 1007.2 |
| 20260904111404 | 68 | 288 | 7.0 | 18.0 | 0.18 | 0.33 | 0.33 | 96 | 1007.2 |
| 20260904110402 | 68 | 253 | 7.0 | 16.0 | 0.20 | 0.32 | 0.32 | 96 | 1007.1 |
| 20260904105403 | 68 | 267 | 5.0 | 14.0 | 0.20 | 0.32 | 0.32 | 96 | 1006.8 |
| 20260904104402 | 68 | 258 | 6.0 | 14.0 | 0.21 | 0.32 | 0.32 | 96 | 1007.1 |
| 20260904102402 | 67 | 229 | 6.0 | 14.0 | 0.20 | 0.31 | 0.31 | 95 | 1007.0 |
| 20260904101402 | 68 | 308 | 7.0 | 19.0 | 0.04 | 0.15 | 0.15 | 95 | 1006.7 |
| 20260904100402 | 68 | 70 | 6.0 | 16.0 | 0.02 | 0.13 | 0.13 | 95 | 1006.3 |
| 20260904095403 | 68 | 273 | 7.0 | 19.0 | 0.02 | 0.13 | 0.12 | 94 | 1006.3 |
| 20260904094402 | 68 | 240 | 8.0 | 15.0 | 0.01 | 0.12 | 0.11 | 94 | 1006.3 |
| 20260904093402 | 68 | 325 | 6.0 | 17.0 | 0.01 | 0.12 | 0.11 | 93 | 1006.3 |
| 20260904092402 | 68 | 227 | 8.0 | 17.0 | 0.01 | 0.12 | 0.11 | 92 | 1006.3 |
| 20260904091402 | 68 | 195 | 8.0 | 21.0 | 0.01 | 0.12 | 0.11 | 91 | 1006.3 |
| 20260904090402 | 69 | 251 | 7.0 | 20.0 | 0.00 | 0.11 | 0.10 | 91 | 1006.3 |
| 20260904085403 | 68 | 251 | 6.0 | 18.0 | 0.01 | 0.11 | 0.10 | 92 | 1006.5 |
| 20260904083402 | 67 | 257 | 7.0 | 17.0 | 0.01 | 0.11 | 0.10 | 93 | 1006.6 |
| 20260904082407 | 67 | 261 | 7.0 | 17.0 | 0.01 | 0.11 | 0.10 | 93 | 1006.8 |
| 20260904081407 | 67 | 188 | 7.0 | 17.0 | 0.01 | 0.11 | 0.10 | 93 | 1006.9 |
| 20260904074407 | 67 | 209 | 6.0 | 14.0 | 0.00 | 0.10 | 0.09 | 92 | 1007.1 |
| 20260904073407 | 67 | 172 | 6.0 | 15.0 | 0.00 | 0.10 | 0.09 | 92 | 1007.3 |
| 20260904072407 | 67 | 188 | 5.0 | 15.0 | 0.00 | 0.10 | 0.09 | 93 | 1007.4 |
| 20260904071407 | 67 | 131 | 6.0 | 19.0 | 0.00 | 0.10 | 0.09 | 93 | 1007.6 |
| 20260904070407 | 67 | 144 | 6.0 | 16.0 | 0.01 | 0.10 | 0.09 | 94 | 1007.6 |
| 20260904065409 | 67 | 181 | 7.0 | 17.0 | 0.01 | 0.10 | 0.09 | 95 | 1007.9 |
| 20260904064407 | 66 | 290 | 6.0 | 20.0 | 0.02 | 0.10 | 0.09 | 95 | 1008.0 |
| 20260904062407 | 66 | 184 | 6.0 | 12.0 | 0.02 | 0.10 | 0.09 | 95 | 1008.2 |
| 20260904061409 | 66 | 202 | 5.0 | 14.0 | 0.03 | 0.10 | 0.09 | 95 | 1008.4 |
| 20260904060407 | 66 | 142 | 4.0 | 10.0 | 0.02 | 0.09 | 0.09 | 95 | 1008.5 |
| 20260904054407 | 66 | 191 | 5.0 | 11.0 | 0.02 | 0.09 | 0.08 | 95 | 1008.9 |
| 20260904053407 | 66 | 220 | 5.0 | 10.0 | 0.03 | 0.09 | 0.08 | 95 | 1008.9 |
| 20260904052409 | 66 | 167 | 6.0 | 14.0 | 0.06 | 0.08 | 0.07 | 95 | 1009.0 |
| 20260904051407 | 66 | 168 | 5.0 | 13.0 | 0.05 | 0.07 | 0.06 | 95 | 1009.0 |
| 20260904045408 | 66 | 252 | 3.0 | 9.0 | 0.05 | 0.07 | 0.06 | 95 | 1009.0 |
| 20260904044407 | 66 | 222 | 3.0 | 8.0 | 0.05 | 0.07 | 0.06 | 94 | 1009.2 |
| 20260904042407 | 67 | 178 | 4.0 | 10.0 | 0.00 | 0.02 | 0.02 | 93 | 1009.6 |
| 20260904040407 | 67 | 162 | 5.0 | 14.0 | 0.00 | 0.02 | 0.02 | 92 | 1009.9 |
| 20260904034407 | 66 | 178 | 7.0 | 12.0 | 0.00 | 0.02 | 0.02 | 93 | 1010.2 |
| 20260904033407 | 66 | 156 | 4.0 | 15.0 | 0.00 | 0.02 | 0.02 | 93 | 1010.4 |
| 20260904032409 | 66 | 229 | 4.0 | 12.0 | 0.00 | 0.02 | 0.02 | 94 | 1010.2 |
| 20260904031407 | 66 | 150 | 5.0 | 16.0 | 0.00 | 0.02 | 0.02 | 94 | 1010.5 |